Location: Dolignon
(49.7320°N, 4.0827°E)
Time: 01:55:28
(UTC+00:00)

Daily predictions for brighter satellites

Satellite Brightness Start Highest point End
(mag) Time Altitude Azimuth Time Altitude Azimuth Time Altitude Azimuth
Cosmos 2344 4.4 02:45:54 66° ENE 02:45:54 66° ENE 02:57:35 10° ESE
ATLAS 2AS CENTAUR R/B 4.0 02:52:20 41° ENE 02:52:20 41° ENE 02:57:07 10° NE
Cosmos 2082 Rocket 4.5 03:20:00 16° NNE 03:20:26 17° NNE 03:24:00 10° ENE
Lacrosse 5 4.1 03:33:29 21° NE 03:33:29 21° NE 03:35:09 10° NE
ATLAS 3B R/B 4.2 03:36:30 27° SSE 03:36:30 27° SSE 03:39:29 10° SSE
CZ-4C R/B 3.4 03:47:08 38° NE 03:47:08 38° NE 03:50:57 10° NE
COSMO-SKYMED 1 4.4 03:56:43 10° SE 04:00:09 30° ENE 04:00:09 30° ENE
Cosmos 1844 Rocket 3.3 04:02:42 49° NE 04:02:42 49° NE 04:06:50 10° NNE
COSMOS 2406 4.2 04:02:25 40° NNE 04:03:25 44° NE 04:08:55 10° SE
USA 305 4.4 04:16:57 34° ESE 04:16:57 34° ESE 04:19:28 10° ESE
ATLAS 5 CENTAUR R/B 3.1 04:17:17 29° SE 04:17:45 29° ESE 04:21:36 10° ENE
NOSS 3-4 (A) 4.2 04:22:14 38° N 04:22:14 38° N 04:27:23 10° NE
NOSS 3-4 (C) 4.2 04:22:20 38° N 04:22:20 38° N 04:27:29 10° NE
Nadezhda 3 Rocket 4.3 04:15:04 10° N 04:21:20 63° ENE 04:27:28 10° SSE
USA 306 4.0 04:25:27 41° ESE 04:25:27 41° ESE 04:28:18 10° ESE
Cosmos 1048 Rocket 4.5 04:28:12 44° N 04:29:33 58° ENE 04:34:39 10° SE
Cosmos 2263 Rocket 4.1 04:33:14 17° N 04:33:14 17° N 04:35:07 10° NNE
Uosat 12 SS-18 rocket 4.4 04:32:43 88° SSE 04:32:43 88° SSE 04:38:29 10° SE
ADEOS 3.7 04:27:47 10° NNE 04:33:02 75° ESE 04:38:15 10° S
BREEZE-M DEB (TANK) 4.3 04:34:15 29° SE 04:34:15 29° SE 04:36:40 10° E
FENGYUN 3A 3.5 04:28:04 10° NNE 04:33:32 88° ESE 04:36:29 28° SSW
Meteor 1-27 Rocket 4.2 04:29:03 14° N 04:34:07 61° ENE 04:39:57 10° SSE
Cosmos 1844 3.5 04:37:52 71° NW 04:37:52 71° NW 04:43:19 10° NNE
ATLAS 2AS CENTAUR R/B 3.3 04:39:47 44° NW 04:40:51 47° NNW 04:48:15 10° NE
Meteor 1-10 Rocket 4.0 04:41:21 55° NNW 04:42:35 78° W 04:48:14 10° S
METEOR-M 4.0 04:43:00 10° NNE 04:48:23 87° WNW 04:53:44 10° SSW
SKYMED 2 3.5 04:44:04 10° SSE 04:48:25 84° ENE 04:48:46 74° N
Cosmos 1707 Rocket 4.2 04:47:28 23° N 04:50:00 52° ENE 04:54:13 10° SSE
SJ-12 4.3 04:46:05 10° NNE 04:50:07 63° ESE 04:54:09 10° S
Cosmos 372 Rocket 3.8 04:49:28 33° SSW 04:51:50 89° WNW 04:56:59 10° NNE
COSMOS 2455 2.7 04:49:17 35° SW 04:52:02 85° NW 04:58:08 10° NE
Cosmos 2154 Rocket 3.9 04:49:27 10° S 04:55:43 89° W 05:02:04 10° N
Cosmos 2298 Rocket 4.4 04:50:45 10° S 04:55:57 63° ESE 05:01:13 10° NNE
PSLV R/B 4.0 04:54:32 10° SSE 04:58:37 77° ENE 04:59:50 44° N
ALOS 3.2 04:54:09 10° N 04:56:56 34° N 04:56:56 34° N
Cosmos 1833 Rocket 2.6 04:57:52 33° NNW 05:00:34 84° ENE 05:06:11 10° SSE
Sich 1 3.4 04:56:45 10° S 05:01:08 68° E 05:05:32 10° NNE
Cosmos 1295 Rocket 4.4 04:56:18 10° S 05:02:24 85° E 05:08:33 10° N
Cosmos 2327 Rocket 4.3 04:58:31 10° SSW 05:04:35 76° W 05:10:44 10° N
Cosmos 2082 Rocket 2.7 05:01:52 20° NNW 05:05:50 57° NE 05:11:27 10° SE
FALCON 9 DEB 4.0 05:07:03 38° NE 05:07:03 38° NE 05:09:33 10° ENE
SL-4 R/B 2.2 05:06:43 49° SSW 05:06:43 49° SSW 05:10:08 10° SE
Cosmos 2074 Rocket 4.1 05:01:16 10° SSW 05:07:16 51° WNW 05:13:20 10° N
EXPRESS MD2 4.0 05:07:42 41° SW 05:08:05 42° SSW 05:13:50 10° SE
USA 290 3.5 05:07:38 32° NNE 05:08:26 38° ENE 05:11:29 10° SE
Cosmos 2228 Rocket 4.4 05:11:09 25° SW 05:11:09 25° SW 05:13:16 10° SSW
Cosmos 1437 Rocket 4.1 05:12:49 24° SSW 05:12:49 24° SSW 05:14:33 10° S
Lacrosse 5 2.6 05:12:41 34° NNW 05:13:42 37° N 05:18:24 10° ENE
EO 1 Delta rocket 3.7 05:13:38 10° S 05:18:17 76° W 05:23:02 10° NNW
ATLAS 3B R/B 4.4 05:23:49 14° WSW 05:23:49 14° WSW 05:25:54 10° SW
ERBS 3.4 05:21:36 31° N 05:21:59 32° NNE 05:25:00 10° E
Cosmos 2341 Rocket 4.1 05:16:11 10° S 05:22:23 81° E 05:28:40 10° NNE
USA 307 3.5 05:22:34 38° WSW 05:23:18 42° SW 05:27:22 10° SSE
Meteor 2-12 Rocket 4.4 05:18:57 10° S 05:25:07 89° W 05:31:20 10° N
Meteor PRIRODA 3.5 05:21:57 10° N 05:25:42 77° WNW 05:29:24 10° SSW
CZ-4B R/B 2.9 05:23:22 10° N 05:27:48 70° WNW 05:32:04 10° SSW
USA 308 3.6 05:28:59 33° WSW 05:29:56 38° SW 05:33:55 10° SSE
Cosmos 2184 Rocket 4.5 05:27:17 10° SW 05:33:05 37° WNW 05:38:59 10° N
CZ-4C R/B 3.2 05:32:20 26° NW 05:34:09 31° NNW 05:39:59 10° NE
Cosmos 2278 Rocket 2.2 05:29:37 10° SSW 05:35:18 85° ESE 05:41:00 10° NNE
FALCON 9 DEB 3.4 05:35:47 42° NNW 05:36:25 50° N 05:39:33 10° E
COSMO-SKYMED 1 3.2 05:32:40 10° SSW 05:36:36 33° W 05:37:21 31° WNW
Okean O Rocket 3.7 05:33:20 10° NNE 05:37:18 30° E 05:41:14 10° SSE
Cosmos 1862 Rocket 3.6 05:32:55 10° N 05:37:23 82° ENE 05:41:47 10° SSE
Envisat 3.5 05:33:13 10° NNE 05:38:18 63° ESE 05:43:20 10° S
deb Chang Zheng 4 4.0 05:36:43 10° N 05:40:45 37° WNW 05:44:44 10° SW
Cosmos 1805 Rocket 4.0 05:37:02 10° SW 05:41:13 39° WNW 05:45:26 10° N
Cosmos 494 Rocket 4.0 05:39:47 19° NW 05:43:17 55° WSW 05:48:16 10° S
YAOGAN 6 2.9 05:40:07 10° NNE 05:43:36 66° ESE 05:47:04 10° S
Cosmos 1515 4.2 05:40:41 10° N 05:44:27 59° ENE 05:48:12 10° SSE
Cosmos 1844 Rocket 3.7 05:44:24 23° WNW 05:45:41 25° NW 05:50:20 10° NNE
SMAP 4.3 05:42:19 10° NNE 05:46:47 44° E 05:51:14 10° S
COSMOS 2406 3.7 05:44:31 22° NW 05:47:42 39° WSW 05:52:59 10° S
Cosmos 1666 Rocket 3.5 05:45:03 10° SSW 05:49:20 62° WNW 05:53:42 10° N
BREEZE-M (TANK) 4.1 05:46:19 10° SW 05:52:31 34° SSE 05:55:01 10° E
Cosmos 1689 Rocket 4.2 05:51:07 10° SW 05:51:47 14° SW 05:51:47 14° SW
USA 305 4.2 05:53:05 20° W 05:54:47 26° SW 05:58:21 10° SSE
Cosmos 1242 Rocket 2.7 05:55:27 14° NNW 05:58:30 53° W 06:02:04 10° S
H-2A R/B 2.4 05:55:32 10° NNE 05:59:22 78° ESE 06:03:13 10° S
Meteor 2-4 Rocket 4.4 05:53:38 10° N 05:59:23 57° ENE 06:04:55 10° SSE
Cosmos 1271 Rocket 3.8 05:55:58 10° N 05:59:41 45° ENE 06:03:25 10° SSE
ATLAS 5 CENTAUR R/B 1.9 05:58:53 15° WSW 06:02:07 45° NW 06:06:43 10° NE
USA 306 4.4 06:01:36 17° W 06:03:34 23° SW 06:06:56 10° S
MOS 1 Rocket 3.9 06:00:19 10° S 06:05:09 45° W 06:10:15 10° NNW
CZ-2C R/B 2.7 06:01:17 10° SSE 06:06:41 82° ENE 06:12:00 10° NNW
USA 229 DEB 4.0 06:01:24 12° NW 06:08:12 87° NE 06:15:54 10° SE
USA 229 4.0 06:01:30 12° NW 06:08:18 86° NE 06:16:00 10° SE
Cosmos 2366 rocket 4.0 06:02:10 10° SSW 06:08:28 77° W 06:14:45 10° N
Cosmos 1633 Rocket 3.3 06:05:05 10° SSW 06:09:21 48° WNW 06:13:38 10° N
Okean 1-7 3.6 06:05:43 10° N 06:09:59 60° ENE 06:14:11 10° SSE
USA 81 4.2 06:06:14 10° SSW 06:11:19 48° WNW 06:16:26 10° N
FALCON 9 DEB 3.1 06:10:17 20° WNW 06:12:22 66° NNE 06:15:35 10° E
H-2A R/B 3.3 06:09:51 10° N 06:13:27 36° WNW 06:16:59 10° SW
Cosmos 2218 Rocket 3.9 06:08:02 10° SSW 06:14:13 68° WNW 06:20:23 10° N
Cosmos 1125 Rocket 3.7 06:09:55 10° SW 06:14:56 48° WNW 06:20:00 10° NNE
Meteor 1-20 Rocket 4.3 06:10:52 10° SSW 06:16:34 62° WNW 06:22:22 10° N
NOSS 3-1 (C) 4.1 06:10:01 11° NW 06:17:07 74° SW 06:25:42 10° SSE
GENESIS II 4.4 06:13:22 10° SW 06:17:24 80° SE 06:21:27 10° NE
FALCON 9 DEB 3.0 06:15:49 17° WNW 06:18:08 67° NNE 06:21:20 10° ESE
Cosmos 1269 Rocket 4.2 06:14:13 10° NNW 06:19:22 54° WSW 06:24:29 10° S
Iridium 2 3.9 06:17:44 10° N 06:21:30 73° E 06:25:15 10° S
PSLV R/B 4.1 06:17:57 10° N 06:21:32 39° WNW 06:25:00 10° SW
NOSS 3-1 (A) 4.1 06:15:03 10° NW 06:22:26 88° NE 06:31:03 10° SE
NOSS 2-1 (E) 3.2 06:26:04 10° SW 06:29:23 74° SE 06:33:01 10° NE
AQUARIUS 4.1 06:27:52 10° NNE 06:32:23 79° WNW 06:36:52 10° SSW
ATLAS 2AS CENTAUR R/B 4.0 06:27:15 11° WNW 06:33:45 29° N 06:40:08 10° NE
CZ-4B DEB 4.3 06:29:20 10° N 06:34:39 53° WNW 06:39:58 10° SW
Cosmos 2242 Rocket 3.6 06:30:27 10° NNW 06:34:48 59° W 06:39:07 10° S
COSMOS 2455 3.9 06:33:49 10° W 06:38:50 26° NNW 06:43:53 10° NNE
Cosmos 1939 Rocket 3.5 06:36:41 10° NNE 06:40:47 64° E 06:44:53 10° S
Okean 1 4.2 06:38:40 10° NNW 06:42:13 29° W 06:45:44 10° SSW
USA 290 4.1 06:40:35 10° WNW 06:42:32 15° W 06:44:30 10° SW
FALCON 9 DEB 2.9 06:39:27 10° WNW 06:42:41 88° NNE 06:45:55 10° ESE
Cosmos 1833 Rocket 4.2 06:40:08 10° WNW 06:43:45 18° W 06:47:21 10° SW
SL-4 R/B 4.1 06:44:10 10° WSW 06:45:17 11° SW 06:46:23 10° SSW
Cosmos 1703 Rocket 3.7 06:42:44 10° NNW 06:46:58 54° W 06:51:11 10° S
NOAA 11 4.3 06:42:30 10° NNE 06:48:02 87° WNW 06:53:33 10° SSW
Cosmos 2082 Rocket 3.2 06:44:48 10° NW 06:49:35 28° WSW 06:54:21 10° SSW
